GW1637 Weather Reports


Display with metric or nautical units.
time (UTC)temp
F
wind
direction
speed
MPH
gust
MPH
rain 1hr
in
rain 24hr
in
rain mn
in
humidity
%
barometer
mb
20240519205627 73 275 6.0 11.0 0.00 0.00 0.00 30 1009.7
20240519205126 71 259 4.0 20.0 0.00 0.00 0.00 33 1009.9
20240519204624 71 343 6.0 26.0 0.00 0.00 0.00 33 1010.2
20240519204123 74 295 5.0 36.0 0.00 0.00 0.00 30 1010.2
20240519203620 78 348 5.0 8.0 0.00 0.00 0.00 25 1009.7
20240519203119 77 103 0.0 5.0 0.00 0.00 0.00 24 1009.4
20240519202619 77 144 3.0 3.0 0.00 0.00 0.00 26 1009.0
20240519202117 77 270 3.0 6.0 0.00 0.00 0.00 24 1009.4
20240519201615 78 346 1.0 4.0 0.00 0.00 0.00 23 1009.2
20240519201115 77 0 4.0 4.0 0.00 0.00 0.00 23 1009.2
20240519200613 77 90 4.0 6.0 0.00 0.00 0.00 24 1009.0
20240519200112 78 113 2.0 8.0 0.00 0.00 0.00 25 1009.3
20240519195610 78 349 2.0 9.0 0.00 0.00 0.00 25 1009.4
20240519195111 79 209 2.0 4.0 0.00 0.00 0.00 24 1009.4
20240519194609 78 8 0.0 10.0 0.00 0.00 0.00 24 1009.4
20240519194108 77 31 3.0 6.0 0.00 0.00 0.00 24 1009.7
20240519193606 76 358 3.0 8.0 0.00 0.00 0.00 24 1009.8
20240519193106 77 173 0.0 4.0 0.00 0.00 0.00 25 1009.4
20240519192604 77 103 0.0 7.0 0.00 0.00 0.00 24 1009.6
20240519192103 80 160 3.0 5.0 0.00 0.00 0.00 23 1009.6
20240519191601 78 306 1.0 4.0 0.00 0.00 0.00 24 1009.7
20240519191059 77 132 2.0 6.0 0.00 0.00 0.00 27 1009.8
20240519190559 78 132 2.0 6.0 0.00 0.00 0.00 25 1009.7
20240519190058 79 180 0.0 7.0 0.00 0.00 0.00 25 1009.8
20240519185557 78 166 1.0 6.0 0.00 0.00 0.00 26 1009.9
20240519185055 77 35 0.0 4.0 0.00 0.00 0.00 27 1009.9
20240519184553 76 98 3.0 9.0 0.00 0.00 0.00 26 1010.2
20240519184052 77 100 3.0 6.0 0.00 0.00 0.00 26 1009.9
20240519183551 78 234 0.0 4.0 0.00 0.00 0.00 23 1010.5
20240519183050 78 80 5.0 6.0 0.00 0.00 0.00 25 1010.4
20240519182548 78 90 2.0 8.0 0.00 0.00 0.00 26 1010.4
20240519182048 77 194 0.0 4.0 0.00 0.00 0.00 26 1010.5
20240519181546 75 200 1.0 5.0 0.00 0.00 0.00 28 1010.6
20240519181044 76 79 3.0 6.0 0.00 0.00 0.00 29 1010.7
20240519180543 76 78 5.0 9.0 0.00 0.00 0.00 27 1010.7
20240519180043 76 23 3.0 6.0 0.00 0.00 0.00 28 1010.7
20240519175542 75 18 2.0 4.0 0.00 0.00 0.00 27 1010.7
20240519175041 77 345 5.0 8.0 0.00 0.00 0.00 26 1010.7
20240519174539 77 112 4.0 8.0 0.00 0.00 0.00 27 1010.9
20240519174038 76 4 5.0 6.0 0.00 0.00 0.00 29 1010.6
20240519173538 76 150 2.0 3.0 0.00 0.00 0.00 30 1011.0
20240519173038 76 124 3.0 3.0 0.00 0.00 0.00 30 1011.1
20240519172537 76 58 3.0 5.0 0.00 0.00 0.00 30 1011.1
20240519172038 75 90 2.0 3.0 0.00 0.00 0.00 32 1011.0
20240519171537 75 107 2.0 4.0 0.00 0.00 0.00 31 1011.2
20240519171036 73 112 3.0 5.0 0.00 0.00 0.00 33 1011.1
20240519170535 73 270 2.0 5.0 0.00 0.00 0.00 34 1011.3
20240519170034 72 334 2.0 3.0 0.00 0.00 0.00 34 1011.3
20240519165534 73 346 3.0 4.0 0.00 0.00 0.00 35 1011.3
20240519165032 73 349 5.0 6.0 0.00 0.00 0.00 35 1011.1
20240519164531 72 0 4.0 4.0 0.00 0.00 0.00 33 1011.3
20240519164029 72 255 0.0 6.0 0.00 0.00 0.00 35 1011.2
20240519163527 74 60 0.0 4.0 0.00 0.00 0.00 35 1011.2
20240519163026 72 349 5.0 7.0 0.00 0.00 0.00 33 1011.2
20240519162523 73 127 2.0 3.0 0.00 0.00 0.00 34 1011.0
20240519162021 73 70 2.0 4.0 0.00 0.00 0.00 34 1011.2
20240519161520 72 220 0.0 4.0 0.00 0.00 0.00 33 1011.1
20240519161019 71 127 2.0 5.0 0.00 0.00 0.00 35 1011.1
20240519160518 70 16 5.0 7.0 0.00 0.00 0.00 35 1011.5
20240519160016 71 69 1.0 6.0 0.00 0.00 0.00 36 1011.6
20240519155515 71 103 2.0 4.0 0.00 0.00 0.00 36 1011.5
20240519155015 70 349 2.0 4.0 0.00 0.00 0.00 35 1011.6
20240519154513 69 54 1.0 5.0 0.00 0.00 0.00 38 1011.6
20240519154011 71 84 2.0 5.0 0.00 0.00 0.00 36 1011.8
20240519153510 70 20 0.0 5.0 0.00 0.00 0.00 36 1011.6
20240519153010 70 85 2.0 5.0 0.00 0.00 0.00 37 1011.8
20240519152507 69 23 0.0 6.0 0.00 0.00 0.00 38 1011.6
20240519152007 71 108 2.0 4.0 0.00 0.00 0.00 36 1011.9
20240519151505 69 323 3.0 5.0 0.00 0.00 0.00 38 1011.8
20240519151005 68 20 1.0 5.0 0.00 0.00 0.00 38 1011.9
20240519150503 69 14 1.0 4.0 0.00 0.00 0.00 38 1011.7
20240519150003 69 4 2.0 4.0 0.00 0.00 0.00 38 1012.0
20240519145502 69 55 2.0 2.0 0.00 0.00 0.00 38 1012.0
20240519145001 68 332 2.0 5.0 0.00 0.00 0.00 37 1012.2
20240519144500 67 28 3.0 5.0 0.00 0.00 0.00 38 1012.2
20240519144000 68 358 3.0 5.0 0.00 0.00 0.00 38 1012.0
20240519143459 67 17 2.0 4.0 0.00 0.00 0.00 38 1012.0
20240519142958 68 45 2.0 3.0 0.00 0.00 0.00 38 1012.2
20240519142457 68 105 0.0 1.0 0.00 0.00 0.00 38 1012.3
20240519141956 67 29 2.0 3.0 0.00 0.00 0.00 40 1012.0
20240519141454 67 28 3.0 3.0 0.00 0.00 0.00 40 1012.3
20240519140953 67 279 0.0 2.0 0.00 0.00 0.00 41 1012.2
20240519140452 68 106 0.0 2.0 0.00 0.00 0.00 40 1011.9
20240519135952 66 45 2.0 3.0 0.00 0.00 0.00 40 1012.2
20240519135450 67 99 0.0 2.0 0.00 0.00 0.00 41 1012.2
20240519134949 64 203 0.0 2.0 0.00 0.00 0.00 45 1012.2
20240519134449 64 191 0.0 3.0 0.00 0.00 0.00 44 1012.0
20240519133947 63 184 2.0 3.0 0.00 0.00 0.00 44 1012.3
20240519133446 63 162 3.0 4.0 0.00 0.00 0.00 46 1012.4
20240519132945 64 175 1.0 2.0 0.00 0.00 0.00 46 1012.3
20240519132444 62 229 2.0 4.0 0.00 0.00 0.00 48 1012.0
20240519131943 63 141 3.0 4.0 0.00 0.00 0.00 46 1012.4
20240519131442 64 114 2.0 3.0 0.00 0.00 0.00 46 1012.4
20240519130941 62 36 0.0 3.0 0.00 0.00 0.00 48 1012.5
20240519130439 63 79 2.0 2.0 0.00 0.00 0.00 46 1012.4
20240519125939 60 185 2.0 3.0 0.00 0.00 0.00 50 1012.5
20240519125438 59 173 0.0 1.0 0.00 0.00 0.00 55 1012.4
20240519124936 57 217 2.0 2.0 0.00 0.00 0.00 55 1012.3
20240519124436 56 261 2.0 3.0 0.00 0.00 0.00 60 1012.4
20240519123935 56 203 1.0 3.0 0.00 0.00 0.00 58 1012.3
20240519123434 55 170 3.0 3.0 0.00 0.00 0.00 60 1012.3
20240519122932 52 240 0.0 1.0 0.00 0.00 0.00 66 1012.4
20240519122431 51 14 0.0 1.0 0.00 0.00 0.00 67 1012.4
20240519121931 52 99 0.0 2.0 0.00 0.00 0.00 66 1012.5
20240519121430 52 90 1.0 2.0 0.00 0.00 0.00 64 1012.5
20240519120928 52 164 2.0 3.0 0.00 0.00 0.00 64 1012.6
20240519120426 53 139 2.0 4.0 0.00 0.00 0.00 64 1012.6
20240519115926 52 161 2.0 3.0 0.00 0.00 0.00 65 1012.4
20240519115424 52 187 0.0 3.0 0.00 0.00 0.00 66 1012.9
20240519114923 51 220 0.0 3.0 0.00 0.00 0.00 68 1012.8
20240519114422 51 187 0.0 2.0 0.00 0.00 0.00 69 1012.8
20240519113921 52 262 0.0 3.0 0.00 0.00 0.00 68 1013.0
20240519113420 52 90 2.0 2.0 0.00 0.00 0.00 65 1013.0
20240519112920 52 11 1.0 1.0 0.00 0.00 0.00 63 1012.9
20240519112419 53 98 1.0 1.0 0.00 0.00 0.00 63 1013.1
20240519111917 53 264 0.0 2.0 0.00 0.00 0.00 63 1012.9
20240519111415 53 236 2.0 3.0 0.00 0.00 0.00 63 1012.9
20240519110914 53 180 2.0 5.0 0.00 0.00 0.00 65 1013.1
20240519110413 52 180 2.0 4.0 0.00 0.00 0.00 68 1013.1
20240519105911 53 144 2.0 5.0 0.00 0.00 0.00 69 1013.5
20240519105410 53 186 3.0 4.0 0.00 0.00 0.00 68 1013.2
20240519104908 53 150 2.0 3.0 0.00 0.00 0.00 67 1013.2
20240519104407 53 154 1.0 2.0 0.00 0.00 0.00 67 1013.6
20240519103907 54 270 0.0 2.0 0.00 0.00 0.00 67 1013.5
20240519103406 54 300 0.0 1.0 0.00 0.00 0.00 67 1013.3
20240519102905 54 263 1.0 2.0 0.00 0.00 0.00 65 1013.5
20240519102405 55 166 0.0 3.0 0.00 0.00 0.00 65 1013.3
20240519101904 55 177 3.0 3.0 0.00 0.00 0.00 64 1013.1
20240519101403 55 132 2.0 4.0 0.00 0.00 0.00 63 1013.3
20240519100902 55 189 4.0 5.0 0.00 0.00 0.00 63 1013.5
20240519100402 55 165 1.0 5.0 0.00 0.00 0.00 63 1013.5
20240519095902 55 106 2.0 4.0 0.00 0.00 0.00 62 1013.6
20240519095400 56 159 2.0 5.0 0.00 0.00 0.00 62 1013.8
20240519094859 56 160 3.0 4.0 0.00 0.00 0.00 61 1013.7
20240519094359 56 176 2.0 4.0 0.00 0.00 0.00 60 1013.8
20240519093857 57 106 2.0 2.0 0.00 0.00 0.00 59 1013.9
20240519093355 57 340 1.0 3.0 0.00 0.00 0.00 58 1014.1
20240519092854 57 12 2.0 2.0 0.00 0.00 0.00 59 1013.7
20240519092354 57 78 2.0 5.0 0.00 0.00 0.00 57 1013.8
20240519091853 57 120 1.0 4.0 0.00 0.00 0.00 56 1014.2
20240519091353 58 174 1.0 4.0 0.00 0.00 0.00 55 1013.9
20240519090851 58 187 1.0 5.0 0.00 0.00 0.00 54 1013.8
20240519090349 58 173 3.0 5.0 0.00 0.00 0.00 54 1013.8
20240519085848 58 180 2.0 6.0 0.00 0.00 0.00 54 1014.1
20240519085347 58 139 2.0 4.0 0.00 0.00 0.00 54 1014.2
20240519084846 58 131 0.0 5.0 0.00 0.00 0.00 54 1013.8
20240519084346 56 135 0.0 2.0 0.00 0.00 0.00 57 1013.9
20240519083846 57 74 0.0 2.0 0.00 0.00 0.00 56 1013.9
20240519083345 58 111 0.0 3.0 0.00 0.00 0.00 55 1014.2
20240519082845 58 194 3.0 3.0 0.00 0.00 0.00 54 1014.2
20240519082343 58 243 1.0 3.0 0.00 0.00 0.00 53 1014.4
20240519081841 59 240 3.0 6.0 0.00 0.00 0.00 53 1014.4
20240519081340 58 172 3.0 4.0 0.00 0.00 0.00 54 1014.3
20240519080840 59 195 5.0 5.0 0.00 0.00 0.00 54 1014.5
20240519080338 59 160 3.0 7.0 0.00 0.00 0.00 53 1014.3
20240519075837 59 108 3.0 4.0 0.00 0.00 0.00 53 1014.3
20240519075336 59 101 2.0 5.0 0.00 0.00 0.00 52 1014.3
20240519074835 59 131 3.0 7.0 0.00 0.00 0.00 51 1014.2
20240519074335 59 112 0.0 4.0 0.00 0.00 0.00 50 1014.9
20240519073833 59 97 3.0 5.0 0.00 0.00 0.00 48 1014.6
20240519073333 59 124 2.0 3.0 0.00 0.00 0.00 48 1014.8
20240519072832 59 151 0.0 0.0 0.00 0.00 0.00 48 1014.8
20240519072329 60 151 1.0 2.0 0.00 0.00 0.00 46 1015.1
20240519071830 60 139 2.0 3.0 0.00 0.00 0.00 46 1014.6
20240519071329 60 106 0.0 3.0 0.00 0.00 0.00 47 1014.6
20240519070825 61 99 3.0 4.0 0.00 0.00 0.00 45 1014.3
20240519070324 62 66 0.0 4.0 0.00 0.00 0.00 42 1014.5
20240519065823 62 261 3.0 6.0 0.00 0.00 0.00 42 1014.6
20240519065322 61 274 3.0 5.0 0.00 0.00 0.00 42 1014.9
20240519064821 60 251 4.0 4.0 0.00 0.00 0.00 44 1015.4
20240519064320 61 195 1.0 3.0 0.00 0.00 0.00 43 1015.0
20240519063820 61 137 4.0 5.0 0.00 0.00 0.00 43 1014.9
20240519063319 59 180 1.0 3.0 0.00 0.00 0.00 47 1014.8
20240519062818 59 180 2.0 5.0 0.00 0.00 0.00 49 1015.1
20240519062317 59 135 3.0 3.0 0.00 0.00 0.00 49 1014.8
20240519061815 58 254 2.0 3.0 0.00 0.00 0.00 51 1014.5
20240519061315 59 90 1.0 3.0 0.00 0.00 0.00 50 1014.5
20240519060814 60 109 1.0 2.0 0.00 0.00 0.00 46 1014.6
20240519060314 60 74 1.0 2.0 0.00 0.00 0.00 46 1015.0
20240519055813 60 81 2.0 3.0 0.00 0.00 0.00 46 1014.8
20240519055311 60 77 4.0 4.0 0.00 0.00 0.00 47 1014.9
20240519054811 59 142 2.0 4.0 0.00 0.00 0.00 47 1014.9
20240519054310 59 111 0.0 1.0 0.00 0.00 0.00 49 1014.9
20240519053808 59 246 0.0 1.0 0.00 0.00 0.00 49 1014.6
20240519053306 59 188 0.0 1.0 0.00 0.00 0.00 48 1014.5
20240519052805 60 82 1.0 2.0 0.00 0.00 0.00 47 1014.3
20240519052302 60 120 3.0 3.0 0.00 0.00 0.00 46 1014.6
20240519051802 60 228 0.0 2.0 0.00 0.00 0.00 46 1014.3
20240519051301 60 279 0.0 3.0 0.00 0.00 0.00 48 1014.4
20240519050800 61 350 0.0 2.0 0.00 0.00 0.00 46 1014.3
20240519050258 61 245 2.0 3.0 0.00 0.00 0.00 45 1014.3
20240519045757 62 232 2.0 5.0 0.00 0.00 0.00 45 1014.5
20240519045257 62 192 4.0 6.0 0.00 0.00 0.00 45 1014.3
20240519044756 62 195 8.0 8.0 0.00 0.00 0.00 46 1014.3
20240519044256 62 165 2.0 6.0 0.00 0.00 0.00 45 1014.3
20240519043754 63 213 2.0 7.0 0.00 0.00 0.00 45 1014.3
20240519043254 62 228 5.0 7.0 0.00 0.00 0.00 45 1014.4
20240519042753 63 184 4.0 9.0 0.00 0.00 0.00 45 1014.4
20240519042253 63 174 1.0 8.0 0.00 0.00 0.00 44 1014.2
20240519041752 63 239 4.0 8.0 0.00 0.00 0.00 45 1014.8
20240519041250 63 222 6.0 7.0 0.00 0.00 0.00 45 1014.6
20240519040748 63 211 5.0 9.0 0.00 0.00 0.00 45 1014.6
20240519040247 63 182 4.0 4.0 0.00 0.00 0.00 46 1014.8
20240519035746 64 172 3.0 8.0 0.00 0.00 0.00 46 1014.9
20240519035245 64 148 7.0 9.0 0.00 0.00 0.00 46 1015.1
20240519034745 64 183 2.0 7.0 0.00 0.00 0.00 46 1015.0
20240519034243 64 158 3.0 10.0 0.00 0.00 0.00 46 1015.1
20240519033741 64 171 4.0 8.0 0.00 0.00 0.00 44 1014.5
20240519033241 64 160 6.0 7.0 0.00 0.00 0.00 43 1014.8
20240519032739 64 199 3.0 10.0 0.00 0.00 0.00 45 1014.3
20240519032239 64 164 4.0 5.0 0.00 0.00 0.00 45 1014.6
20240519031738 64 175 5.0 7.0 0.00 0.00 0.00 46 1014.5
20240519031236 64 133 3.0 6.0 0.00 0.00 0.00 47 1014.5
20240519030734 64 148 4.0 5.0 0.00 0.00 0.00 47 1014.9
20240519030233 64 105 2.0 6.0 0.00 0.00 0.00 47 1014.9
20240519025732 64 133 3.0 4.0 0.00 0.00 0.00 46 1014.9
20240519025232 64 137 4.0 5.0 0.00 0.00 0.00 46 1014.6
20240519024730 64 105 4.0 5.0 0.00 0.00 0.00 46 1014.8
20240519024229 64 148 2.0 3.0 0.00 0.00 0.00 46 1015.0
20240519023728 64 148 2.0 3.0 0.00 0.00 0.00 46 1015.2
20240519023228 64 152 2.0 6.0 0.00 0.00 0.00 46 1015.0
20240519022725 64 140 0.0 4.0 0.00 0.00 0.00 47 1014.9
20240519022224 64 214 3.0 4.0 0.00 0.00 0.00 47 1015.0
20240519021723 64 149 3.0 4.0 0.00 0.00 0.00 46 1015.0
20240519021222 64 194 1.0 4.0 0.00 0.00 0.00 46 1015.2
20240519020719 64 180 2.0 3.0 0.00 0.00 0.00 46 1015.2
20240519020219 64 162 1.0 3.0 0.00 0.00 0.00 46 1015.2
20240519015718 65 151 2.0 3.0 0.00 0.00 0.00 46 1015.1
20240519015218 65 148 0.0 4.0 0.00 0.00 0.00 45 1015.2
20240519014718 65 170 2.0 4.0 0.00 0.00 0.00 45 1015.4
20240519014217 65 150 2.0 3.0 0.00 0.00 0.00 45 1015.0
20240519013717 65 101 0.0 2.0 0.00 0.00 0.00 44 1014.9
20240519013216 66 180 0.0 1.0 0.00 0.00 0.00 44 1015.0
20240519012715 66 114 0.0 2.0 0.00 0.00 0.00 44 1015.1
20240519012215 66 39 3.0 3.0 0.00 0.00 0.00 44 1015.0
20240519011715 66 106 0.0 2.0 0.00 0.00 0.00 45 1015.2
20240519011213 66 98 1.0 1.0 0.00 0.00 0.00 44 1015.2
20240519010711 67 74 1.0 3.0 0.00 0.00 0.00 44 1014.9
20240519010210 67 337 1.0 3.0 0.00 0.00 0.00 43 1015.6
20240519005709 67 71 0.0 5.0 0.00 0.00 0.00 43 1015.6
20240519005209 67 355 3.0 6.0 0.00 0.00 0.00 43 1015.6
20240519004708 67 0 3.0 7.0 0.00 0.00 0.00 42 1015.7
20240519004208 67 355 3.0 5.0 0.00 0.00 0.00 43 1015.6
20240519003706 68 338 2.0 9.0 0.00 0.00 0.00 42 1015.4
20240519003206 68 286 0.0 5.0 0.00 0.00 0.00 43 1015.5
20240519002705 68 348 5.0 8.0 0.00 0.00 0.00 42 1015.1
20240519002205 69 282 3.0 13.0 0.00 0.00 0.00 42 1015.1
20240519001705 69 304 3.0 10.0 0.00 0.00 0.00 40 1014.8
20240519001203 70 0 5.0 15.0 0.00 0.00 0.00 41 1015.1
20240519000702 70 0 3.0 13.0 0.00 0.00 0.00 41 1015.0
20240519000201 70 353 4.0 16.0 0.00 0.00 0.00 41 1015.0
20240518235701 72 281 0.0 5.0 0.00 0.00 0.00 35 1014.9
20240518235201 71 154 0.0 7.0 0.00 0.00 0.00 34 1014.4
20240518234659 71 150 8.0 13.0 0.00 0.00 0.00 34 1014.2
20240518234157 71 128 4.0 14.0 0.00 0.00 0.00 34 1013.6
20240518233655 72 140 5.0 11.0 0.00 0.00 0.00 33 1013.5
20240518233154 73 135 7.0 8.0 0.00 0.00 0.00 31 1013.6
20240518232652 73 128 4.0 14.0 0.00 0.00 0.00 30 1013.3
20240518232150 73 233 6.0 11.0 0.00 0.00 0.00 30 1013.2
20240518231647 71 190 4.0 14.0 0.00 0.00 0.00 37 1012.6
20240518231147 70 206 3.0 14.0 0.00 0.00 0.00 42 1013.3
20240518230645 69 166 6.0 16.0 0.00 0.00 0.00 44 1012.9
20240518230144 69 125 7.0 17.0 0.00 0.00 0.00 41 1013.2
20240518225642 69 148 11.0 22.0 0.00 0.00 0.00 41 1012.9
20240518225140 70 149 14.0 27.0 0.00 0.00 0.00 39 1013.2
20240518224640 71 170 7.0 21.0 0.00 0.00 0.00 38 1013.1
20240518224139 71 152 11.0 27.0 0.00 0.00 0.00 37 1013.3
20240518223638 71 137 5.0 17.0 0.00 0.00 0.00 37 1013.3
20240518223136 71 130 4.0 16.0 0.00 0.00 0.00 37 1013.1
20240518222636 71 135 10.0 18.0 0.00 0.00 0.00 37 1013.6
20240518222135 71 132 11.0 16.0 0.00 0.00 0.00 39 1013.3
20240518221633 73 141 13.0 25.0 0.00 0.00 0.00 38 1013.3
20240518221132 73 118 5.0 21.0 0.00 0.00 0.00 38 1013.6
20240518220631 73 114 12.0 18.0 0.00 0.00 0.00 37 1013.5
20240518220128 74 154 9.0 19.0 0.00 0.00 0.00 36 1013.6
20240518215627 74 122 4.0 25.0 0.00 0.00 0.00 36 1013.7
20240518215126 73 165 3.0 18.0 0.00 0.00 0.00 37 1013.8
20240518214625 73 136 14.0 32.0 0.00 0.00 0.00 37 1013.7
20240518214125 73 174 4.0 17.0 0.00 0.00 0.00 38 1014.1
20240518213625 73 82 7.0 22.0 0.00 0.00 0.00 37 1014.3
20240518213123 73 120 12.0 24.0 0.00 0.00 0.00 35 1014.1
20240518212621 71 167 7.0 11.0 0.00 0.00 0.00 38 1014.4
20240518212121 71 63 3.0 22.0 0.00 0.00 0.00 37 1014.4
20240518211620 71 142 4.0 9.0 0.00 0.00 0.00 36 1014.6
20240518211119 72 107 11.0 12.0 0.00 0.00 0.00 35 1014.5
20240518210619 72 116 4.0 13.0 0.00 0.00 0.00 35 1014.4
20240518210117 72 143 12.0 14.0 0.00 0.00 0.00 34 1014.6